Time,TemperatureF,DewpointF,PressureIn,WindDirection,WindDirectionDegrees,WindSpeedMPH,WindSpeedGustMPH,Humidity,HourlyPrecipIn,Conditions,Clouds,dailyrainin,SoftwareType,DateUTC
2013-02-24 00:00:00,73.8,70.0,29.95,NE,56,4.0,14.0,87,0.00,,,0.00,weatherlink.com 1.10,2013-02-24 04:00:00,
2013-02-24 00:15:00,73.5,70.0,29.95,ENE,75,9.0,11.0,88,0.00,,,0.00,weatherlink.com 1.10,2013-02-24 04:15:00,
2013-02-24 00:30:00,73.3,70.0,29.95,ESE,121,4.0,10.0,88,0.00,,,0.00,weatherlink.com 1.10,2013-02-24 04:30:00,
2013-02-24 00:45:00,73.4,70.0,29.95,ESE,110,4.0,10.0,88,0.00,,,0.00,weatherlink.com 1.10,2013-02-24 04:45:00,
2013-02-24 01:00:00,73.2,70.0,29.94,East,89,12.0,12.0,89,0.00,,,0.00,weatherlink.com 1.10,2013-02-24 05:00:00,
2013-02-24 01:15:00,73.1,70.0,29.94,ESE,108,4.0,12.0,89,0.00,,,0.00,weatherlink.com 1.10,2013-02-24 05:15:00,
2013-02-24 01:31:00,72.9,70.0,29.93,ENE,78,11.0,14.0,90,0.00,,,0.00,weatherlink.com 1.10,2013-02-24 05:31:00,
2013-02-24 01:46:00,72.9,70.0,29.93,ESE,108,4.0,11.0,91,0.00,,,0.00,weatherlink.com 1.10,2013-02-24 05:46:00,
2013-02-24 02:01:00,72.9,70.0,29.93,ESE,105,3.0,12.0,91,0.00,,,0.00,weatherlink.com 1.10,2013-02-24 06:01:00,
2013-02-24 02:16:00,73.0,70.0,29.92,ESE,113,4.0,8.0,91,0.00,,,0.00,weatherlink.com 1.10,2013-02-24 06:16:00,
2013-02-24 02:31:00,73.1,70.0,29.92,East,101,3.0,7.0,91,0.00,,,0.00,weatherlink.com 1.10,2013-02-24 06:31:00,
2013-02-24 02:46:00,73.1,70.0,29.92,East,84,5.0,8.0,91,0.00,,,0.00,weatherlink.com 1.10,2013-02-24 06:46:00,
2013-02-24 03:01:00,73.2,71.0,29.92,ESE,114,2.0,8.0,91,0.00,,,0.00,weatherlink.com 1.10,2013-02-24 07:01:00,
2013-02-24 03:16:00,73.4,71.0,29.91,East,91,9.0,9.0,91,0.00,,,0.00,weatherlink.com 1.10,2013-02-24 07:16:00,
2013-02-24 03:31:00,73.5,71.0,29.91,East,84,3.0,10.0,90,0.00,,,0.00,weatherlink.com 1.10,2013-02-24 07:31:00,
2013-02-24 03:46:00,73.6,71.0,29.91,East,99,4.0,6.0,90,0.00,,,0.00,weatherlink.com 1.10,2013-02-24 07:46:00,
2013-02-24 04:01:00,73.5,71.0,29.92,ENE,68,3.0,6.0,90,0.00,,,0.00,weatherlink.com 1.10,2013-02-24 08:01:00,
2013-02-24 04:16:00,73.1,70.0,29.92,ENE,63,1.0,6.0,91,0.00,,,0.00,weatherlink.com 1.10,2013-02-24 08:16:00,
2013-02-24 04:31:00,72.6,70.0,29.92,East,81,2.0,9.0,92,0.00,,,0.00,weatherlink.com 1.10,2013-02-24 08:31:00,
2013-02-24 05:01:00,72.7,70.0,29.93,East,90,3.0,11.0,92,0.00,,,0.00,weatherlink.com 1.10,2013-02-24 09:01:00,
2013-02-24 05:16:00,72.7,70.0,29.93,ENE,57,5.0,8.0,91,0.00,,,0.00,weatherlink.com 1.10,2013-02-24 09:16:00,
2013-02-24 05:31:00,73.3,70.0,29.93,ENE,63,7.0,10.0,89,0.00,,,0.00,weatherlink.com 1.10,2013-02-24 09:31:00,
2013-02-24 05:46:00,73.4,70.0,29.93,East,86,5.0,9.0,89,0.00,,,0.00,weatherlink.com 1.10,2013-02-24 09:46:00,
2013-02-24 06:01:00,73.5,70.0,29.94,ENE,72,5.0,13.0,88,0.00,,,0.00,weatherlink.com 1.10,2013-02-24 10:01:00,
2013-02-24 06:16:00,73.6,70.0,29.94,East,92,9.0,13.0,88,0.00,,,0.00,weatherlink.com 1.10,2013-02-24 10:16:00,
2013-02-24 06:31:00,73.6,70.0,29.95,East,84,6.0,13.0,88,0.00,,,0.00,weatherlink.com 1.10,2013-02-24 10:31:00,
2013-02-24 06:46:00,73.6,70.0,29.96,East,84,11.0,11.0,89,0.00,,,0.00,weatherlink.com 1.10,2013-02-24 10:46:00,
2013-02-24 07:01:00,73.8,70.0,29.96,ENE,70,9.0,12.0,89,0.00,,,0.00,weatherlink.com 1.10,2013-02-24 11:01:00,
2013-02-24 07:16:00,74.0,70.0,29.96,East,98,17.0,17.0,86,0.00,,,0.00,weatherlink.com 1.10,2013-02-24 11:16:00,
2013-02-24 07:31:00,75.0,70.0,29.97,East,82,7.0,19.0,84,0.01,,,0.01,weatherlink.com 1.10,2013-02-24 11:31:00,
2013-02-24 07:46:00,75.9,70.0,29.97,ENE,60,4.0,15.0,83,0.01,,,0.01,weatherlink.com 1.10,2013-02-24 11:46:00,
2013-02-24 08:01:00,76.4,71.0,29.98,East,92,13.0,19.0,82,0.01,,,0.01,weatherlink.com 1.10,2013-02-24 12:01:00,
2013-02-24 08:16:00,76.8,71.0,29.98,East,79,8.0,14.0,81,0.01,,,0.01,weatherlink.com 1.10,2013-02-24 12:16:00,
2013-02-24 08:31:00,77.2,71.0,29.99,ESE,114,2.0,13.0,80,0.00,,,0.01,weatherlink.com 1.10,2013-02-24 12:31:00,
2013-02-24 08:46:00,78.3,72.0,29.99,East,84,3.0,8.0,80,0.00,,,0.01,weatherlink.com 1.10,2013-02-24 12:46:00,
2013-02-24 09:01:00,79.4,72.0,30.00,ENE,76,3.0,7.0,78,0.00,,,0.01,weatherlink.com 1.10,2013-02-24 13:01:00,
2013-02-24 09:16:00,79.8,72.0,30.00,ENE,67,1.0,9.0,76,0.00,,,0.01,weatherlink.com 1.10,2013-02-24 13:16:00,
2013-02-24 09:31:00,79.6,73.0,30.01,East,93,4.0,10.0,79,0.00,,,0.01,weatherlink.com 1.10,2013-02-24 13:31:00,
2013-02-24 09:46:00,78.3,72.0,30.01,NE,39,6.0,17.0,80,0.00,,,0.01,weatherlink.com 1.10,2013-02-24 13:46:00,
2013-02-24 10:02:00,77.0,71.0,30.01,NE,53,4.0,14.0,81,0.00,,,0.01,weatherlink.com 1.10,2013-02-24 14:02:00,
2013-02-24 10:17:00,77.4,71.0,30.01,NE,53,3.0,14.0,80,0.00,,,0.01,weatherlink.com 1.10,2013-02-24 14:17:00,
2013-02-24 10:32:00,77.8,71.0,30.01,NNE,23,9.0,19.0,80,0.00,,,0.01,weatherlink.com 1.10,2013-02-24 14:32:00,
2013-02-24 10:47:00,78.0,71.0,30.00,NE,50,16.0,17.0,79,0.00,,,0.01,weatherlink.com 1.10,2013-02-24 14:47:00,
2013-02-24 11:02:00,77.2,70.0,30.00,NE,34,16.0,19.0,79,0.00,,,0.01,weatherlink.com 1.10,2013-02-24 15:02:00,
2013-02-24 11:17:00,78.1,71.0,29.99,ENE,67,4.0,21.0,79,0.00,,,0.01,weatherlink.com 1.10,2013-02-24 15:17:00,
2013-02-24 11:32:00,78.6,71.0,29.99,East,95,6.0,15.0,78,0.00,,,0.01,weatherlink.com 1.10,2013-02-24 15:32:00,
2013-02-24 11:47:00,78.5,71.0,29.98,NE,39,7.0,22.0,78,0.00,,,0.01,weatherlink.com 1.10,2013-02-24 15:47:00,
2013-02-24 12:02:00,78.2,70.0,29.97,NE,49,13.0,21.0,77,0.00,,,0.01,weatherlink.com 1.10,2013-02-24 16:02:00,
2013-02-24 12:17:00,77.8,70.0,29.96,North,4,10.0,21.0,78,0.00,,,0.01,weatherlink.com 1.10,2013-02-24 16:17:00,
2013-02-24 12:56:00,78.0,71.0,29.95,ENE,70,6.0,18.0,79,0.00,,,0.01,weatherlink.com 1.10,2013-02-24 16:56:00,
2013-02-24 13:02:00,78.4,71.0,29.94,NE,53,7.0,15.0,78,0.00,,,0.01,weatherlink.com 1.10,2013-02-24 17:02:00,
2013-02-24 13:17:00,77.8,70.0,29.94,NE,49,12.0,18.0,78,0.00,,,0.01,weatherlink.com 1.10,2013-02-24 17:17:00,
2013-02-24 13:32:00,77.3,70.0,29.94,NE,37,5.0,21.0,77,0.00,,,0.01,weatherlink.com 1.10,2013-02-24 17:32:00,
2013-02-24 13:47:00,77.6,71.0,29.93,NNE,30,8.0,20.0,79,0.00,,,0.01,weatherlink.com 1.10,2013-02-24 17:47:00,
2013-02-24 14:02:00,77.8,70.0,29.92,ENE,59,13.0,17.0,78,0.00,,,0.01,weatherlink.com 1.10,2013-02-24 18:02:00,
2013-02-24 14:17:00,78.0,70.0,29.92,NE,36,13.0,17.0,77,0.00,,,0.01,weatherlink.com 1.10,2013-02-24 18:17:00,
2013-02-24 14:32:00,78.3,71.0,29.91,NNE,23,17.0,18.0,78,0.00,,,0.01,weatherlink.com 1.10,2013-02-24 18:32:00,
2013-02-24 14:47:00,77.8,70.0,29.90,North,10,12.0,17.0,76,0.00,,,0.01,weatherlink.com 1.10,2013-02-24 18:47:00,
2013-02-24 15:02:00,77.9,71.0,29.90,NE,36,13.0,19.0,78,0.00,,,0.01,weatherlink.com 1.10,2013-02-24 19:02:00,
2013-02-24 15:17:00,78.6,71.0,29.90,NE,46,13.0,14.0,78,0.00,,,0.01,weatherlink.com 1.10,2013-02-24 19:17:00,
2013-02-24 15:32:00,77.3,70.0,29.89,East,90,8.0,16.0,78,0.00,,,0.01,weatherlink.com 1.10,2013-02-24 19:32:00,
2013-02-24 15:47:00,77.8,71.0,29.90,NE,46,10.0,18.0,80,0.00,,,0.01,weatherlink.com 1.10,2013-02-24 19:47:00,
2013-02-24 16:02:00,77.0,70.0,29.90,ENE,61,4.0,13.0,80,0.00,,,0.01,weatherlink.com 1.10,2013-02-24 20:02:00,
2013-02-24 16:17:00,77.1,71.0,29.89,NNE,16,11.0,16.0,80,0.00,,,0.01,weatherlink.com 1.10,2013-02-24 20:17:00,
2013-02-24 16:32:00,76.9,70.0,29.90,NE,50,4.0,10.0,80,0.00,,,0.01,weatherlink.com 1.10,2013-02-24 20:32:00,
2013-02-24 16:47:00,76.5,71.0,29.90,NE,41,5.0,17.0,82,0.00,,,0.01,weatherlink.com 1.10,2013-02-24 20:47:00,
2013-02-24 17:02:00,76.4,71.0,29.90,ENE,72,7.0,11.0,82,0.00,,,0.01,weatherlink.com 1.10,2013-02-24 21:02:00,
2013-02-24 17:17:00,76.2,70.0,29.91,NE,56,7.0,10.0,81,0.00,,,0.01,weatherlink.com 1.10,2013-02-24 21:17:00,
2013-02-24 17:32:00,75.8,70.0,29.91,East,79,4.0,10.0,82,0.00,,,0.01,weatherlink.com 1.10,2013-02-24 21:32:00,
2013-02-24 17:47:00,75.5,70.0,29.91,ENE,57,6.0,8.0,83,0.00,,,0.01,weatherlink.com 1.10,2013-02-24 21:47:00,
2013-02-24 18:17:00,74.6,69.0,29.92,East,84,5.0,10.0,83,0.00,,,0.01,weatherlink.com 1.10,2013-02-24 22:17:00,
2013-02-24 18:32:00,74.4,69.0,29.92,ENE,64,5.0,9.0,83,0.00,,,0.01,weatherlink.com 1.10,2013-02-24 22:32:00,
2013-02-24 18:47:00,74.0,69.0,29.92,ENE,71,2.0,6.0,84,0.00,,,0.01,weatherlink.com 1.10,2013-02-24 22:47:00,
2013-02-24 19:02:00,74.0,69.0,29.92,East,83,3.0,11.0,83,0.00,,,0.01,weatherlink.com 1.10,2013-02-24 23:02:00,
2013-02-24 19:17:00,74.1,69.0,29.92,NE,53,8.0,12.0,83,0.00,,,0.01,weatherlink.com 1.10,2013-02-24 23:17:00,
2013-02-24 19:32:00,74.2,69.0,29.92,East,92,10.0,12.0,83,0.00,,,0.01,weatherlink.com 1.10,2013-02-24 23:32:00,
2013-02-24 19:47:00,74.2,69.0,29.93,East,84,5.0,13.0,83,0.00,,,0.01,weatherlink.com 1.10,2013-02-24 23:47:00,
2013-02-24 20:02:00,74.3,69.0,29.93,NE,55,10.0,20.0,84,0.00,,,0.01,weatherlink.com 1.10,2013-02-25 00:02:00,
2013-02-24 20:17:00,74.3,69.0,29.94,NE,49,13.0,16.0,84,0.00,,,0.01,weatherlink.com 1.10,2013-02-25 00:17:00,
2013-02-24 20:32:00,74.3,69.0,29.94,NNE,33,9.0,14.0,84,0.00,,,0.01,weatherlink.com 1.10,2013-02-25 00:32:00,
2013-02-24 20:47:00,74.2,69.0,29.94,East,92,6.0,19.0,83,0.00,,,0.01,weatherlink.com 1.10,2013-02-25 00:47:00,
2013-02-24 21:02:00,74.3,69.0,29.95,East,88,9.0,17.0,82,0.00,,,0.01,weatherlink.com 1.10,2013-02-25 01:02:00,
2013-02-24 21:17:00,74.1,68.0,29.96,East,88,4.0,13.0,82,0.00,,,0.01,weatherlink.com 1.10,2013-02-25 01:17:00,
2013-02-24 21:32:00,73.7,68.0,29.96,East,88,4.0,10.0,83,0.00,,,0.01,weatherlink.com 1.10,2013-02-25 01:32:00,
2013-02-24 21:47:00,73.5,68.0,29.96,East,84,6.0,8.0,84,0.00,,,0.01,weatherlink.com 1.10,2013-02-25 01:47:00,
2013-02-24 22:02:00,73.5,68.0,29.96,NE,56,9.0,14.0,84,0.00,,,0.01,weatherlink.com 1.10,2013-02-25 02:02:00,
2013-02-24 22:17:00,73.7,68.0,29.96,East,89,4.0,10.0,83,0.00,,,0.01,weatherlink.com 1.10,2013-02-25 02:17:00,
2013-02-24 22:32:00,73.8,69.0,29.97,East,79,3.0,12.0,84,0.00,,,0.01,weatherlink.com 1.10,2013-02-25 02:32:00,
2013-02-24 22:47:00,73.6,69.0,29.97,East,80,4.0,8.0,84,0.00,,,0.01,weatherlink.com 1.10,2013-02-25 02:47:00,
2013-02-24 23:02:00,73.7,69.0,29.97,East,100,5.0,15.0,84,0.00,,,0.01,weatherlink.com 1.10,2013-02-25 03:02:00,
2013-02-24 23:17:00,73.6,69.0,29.97,East,100,6.0,11.0,85,0.00,,,0.01,weatherlink.com 1.10,2013-02-25 03:17:00,
2013-02-24 23:47:00,73.8,69.0,29.96,East,86,4.0,11.0,85,0.00,,,0.01,weatherlink.com 1.10,2013-02-25 03:47:00,